This demonstration page uses our WeatherBlox Daily Observations layout. Learn more.

Left ArrowRight Arrow

Hourly Observations for July 5, 2022

Temp ( °F °C ) Dew Point ( °F °C ) Humidity (%) Winds ( mph kmh ) Pressure ( in mb ) Visibility ( mi km ) Precip ( " mm )
12:53 am 00:53 Clear 79 26.1 61 16.1 54 54 SSE 8 13 29.85 1011 10 16 0.00 0.00
1:53 am 01:53 Clear 78 25.6 63 17.2 60 60 E 6 9 29.85 1011 10 16 0.00 0.00
2:53 am 02:53 Clear 75 23.9 66 18.9 74 74 NNW 6 9 29.85 1011 10 16 0.00 0.00
3:53 am 03:53 Clear 76 24.4 66 18.9 72 72 Calm 29.84 1011 10 16 0.00 0.00
4:53 am 04:53 Clear 75 23.9 66 18.9 74 74 ENE 5 7 29.84 1010 10 16 0.00 0.00
5:53 am 05:53 Clear 77 25 65 18.3 66 66 SSE 7 11 29.85 1011 10 16 0.00 0.00
6:53 am 06:53 Sunny 76 24.4 64 17.8 67 67 SW 6 9 29.85 1011 10 16 0.00 0.00
7:53 am 07:53 Sunny 77 25 65 18.3 66 66 SSE 5 7 29.88 1012 10 16 0.00 0.00
8:53 am 08:53 Sunny 82 27.8 64 17.8 55 55 S 8 13 29.88 1012 10 16 0.00 0.00
9:53 am 09:53 Sunny 83 28.3 63 17.2 51 51 SW 5 7 29.88 1012 10 16 0.00 0.00
10:53 am 10:53 Sunny 87 30.6 61 16.1 42 42 S 8 13 29.86 1011 10 16 0.00 0.00
11:53 am 11:53 Sunny 92 33.3 60 15.6 34 34 S 14 22 29.85 1011 10 16 0.00 0.00
12:53 pm 12:53 Mostly Sunny 91 32.8 60 15.6 35 35 S 12 19 29.84 1011 10 16 0.00 0.00
1:53 pm 13:53 Sunny 92 33.3 59 15 33 33 S 9 15 29.82 1010 10 16 0.00 0.00
2:53 pm 14:53 Sunny 93 33.9 56 13.3 29 29 S 7 11 29.80 1009 10 16 0.00 0.00
3:53 pm 15:53 Sunny 95 35 55 12.8 26 26 VRB 5 7 29.78 1009 10 16 0.00 0.00
4:53 pm 16:53 Sunny 97 36.1 52 11.1 22 22 WSW 6 9 29.75 1008 10 16 0.00 0.00
5:53 pm 17:53 Mostly Sunny 95 35 57 13.9 28 28 S 24 39 29.76 1008 10 16 0.00 0.00
6:03 pm 18:03 Partly Cloudy with Nearby Thunderstorms 93 33.9 55 12.8 28 28 S 25 41 29.70 1006 10 16 0.00 0.00
6:53 pm 18:53 Sunny 83 28.3 61 16.1 48 48 S 14 22 29.82 1010 10 16 0.00 0.00
7:53 pm 19:53 Sunny 82 27.8 63 17.2 53 53 S 17 28 29.78 1009 10 16 0.00 0.00
8:53 pm 20:53 Sunny 81 27.2 63 17.2 54 54 S 10 17 29.75 1008 10 16 0.00 0.00
9:53 pm 21:53 Mostly Clear 81 27.2 63 17.2 54 54 S 15 24 29.84 1010 10 16 0.00 0.00
10:53 pm 22:53 Clear 81 27.2 59 15 47 47 SW 10 17 29.82 1010 10 16 0.00 0.00
11:53 pm 23:53 Clear 78 25.6 61 16.1 56 56 SW 5 7 29.82 1010 10 16 0.00 0.00

Powered by AerisWeather